| time (UTC) | temp F | wind direction | speed MPH | gust MPH | rain 1hr in | rain 24hr in | rain mn in | humidity % | barometer mb |
| 20260901070009 | 79 | 217 | 0.0 | 0.0 | 0.00 | 0.26 | 0.00 | 87 | 1015.4 |
| 20260901064536 | 79 | 217 | 0.0 | 0.0 | 0.00 | 0.26 | 0.00 | 87 | 1015.6 |
| 20260901063006 | 79 | 217 | 0.0 | 0.0 | 0.00 | 0.26 | 0.00 | 87 | 1015.7 |
| 20260901061530 | 79 | 217 | 0.0 | 0.0 | 0.00 | 0.26 | 0.00 | 88 | 1015.7 |
| 20260901060100 | 79 | 217 | 0.0 | 0.0 | 0.00 | 0.26 | 0.00 | 88 | 1015.8 |
| 20260901054532 | 79 | 217 | 0.0 | 0.0 | 0.00 | 0.26 | 0.00 | 88 | 1015.7 |
| 20260901053111 | 79 | 217 | 0.0 | 0.0 | 0.00 | 0.26 | 0.00 | 88 | 1015.6 |
| 20260901053007 | 79 | 217 | 0.0 | 0.0 | 0.00 | 0.26 | 0.00 | 88 | 1015.5 |
| 20260901051523 | 79 | 217 | 0.0 | 0.0 | 0.00 | 0.26 | 0.00 | 88 | 1015.6 |
| 20260901050053 | 79 | 217 | 0.0 | 0.0 | 0.00 | 0.26 | 0.00 | 88 | 1015.5 |
| 20260901044543 | 79 | 217 | 0.0 | 0.0 | 0.00 | 0.26 | 0.26 | 88 | 1015.4 |
| 20260901043027 | 79 | 217 | 0.0 | 0.0 | 0.00 | 0.26 | 0.26 | 88 | 1015.4 |
| 20260901041553 | 79 | 217 | 0.0 | 1.0 | 0.00 | 0.26 | 0.26 | 88 | 1015.3 |
| 20260901040029 | 79 | 217 | 0.0 | 1.0 | 0.00 | 0.26 | 0.26 | 88 | 1015.5 |
| 20260901034558 | 79 | 217 | 0.0 | 2.0 | 0.00 | 0.26 | 0.26 | 88 | 1015.1 |
| 20260901033029 | 80 | 218 | 0.0 | 1.0 | 0.00 | 0.26 | 0.26 | 88 | 1014.9 |
| 20260901031618 | 80 | 218 | 0.0 | 0.0 | 0.00 | 0.26 | 0.26 | 88 | 1014.5 |
| 20260901030030 | 80 | 218 | 0.0 | 0.0 | 0.00 | 0.26 | 0.26 | 88 | 1014.3 |
| 20260901024555 | 80 | 218 | 0.0 | 0.0 | 0.00 | 0.26 | 0.26 | 88 | 1014.2 |
| 20260901023026 | 81 | 218 | 0.0 | 0.0 | 0.00 | 0.26 | 0.26 | 88 | 1014.1 |
| 20260901021547 | 81 | 218 | 0.0 | 0.0 | 0.00 | 0.26 | 0.26 | 88 | 1014.0 |
| 20260901020029 | 81 | 218 | 0.0 | 0.0 | 0.00 | 0.26 | 0.26 | 88 | 1013.9 |
| 20260901014556 | 81 | 218 | 0.0 | 1.0 | 0.00 | 0.26 | 0.26 | 88 | 1013.7 |
| 20260901013024 | 81 | 218 | 0.0 | 0.0 | 0.00 | 0.26 | 0.26 | 88 | 1013.6 |
| 20260901011542 | 81 | 218 | 0.0 | 0.0 | 0.00 | 0.26 | 0.26 | 88 | 1013.5 |
| 20260901010018 | 81 | 218 | 0.0 | 0.0 | 0.00 | 0.26 | 0.26 | 88 | 1013.5 |
| 20260901004538 | 81 | 218 | 0.0 | 0.0 | 0.00 | 0.26 | 0.26 | 87 | 1013.5 |
| 20260901003104 | 80 | 218 | 0.0 | 0.0 | 0.00 | 0.26 | 0.26 | 87 | 1013.6 |
| 20260901003002 | 80 | 218 | 0.0 | 0.0 | 0.00 | 0.26 | 0.26 | 87 | 1013.6 |
| 20260901001553 | 80 | 218 | 0.0 | 0.0 | 0.00 | 0.26 | 0.26 | 87 | 1013.7 |
| 20260901000009 | 80 | 218 | 0.0 | 0.0 | 0.00 | 0.26 | 0.26 | 86 | 1013.7 |
| 20260831234536 | 80 | 218 | 0.0 | 0.0 | 0.00 | 0.26 | 0.26 | 85 | 1013.7 |
| 20260831233012 | 80 | 218 | 0.0 | 1.0 | 0.00 | 0.26 | 0.26 | 84 | 1013.8 |
| 20260831231544 | 80 | 218 | 0.0 | 2.0 | 0.08 | 0.26 | 0.26 | 83 | 1013.9 |
| 20260831230011 | 81 | 218 | 0.0 | 1.0 | 0.21 | 0.26 | 0.26 | 82 | 1013.8 |
| 20260831224534 | 82 | 218 | 0.0 | 2.0 | 0.21 | 0.26 | 0.26 | 78 | 1013.9 |
| 20260831223006 | 83 | 219 | 2.0 | 6.0 | 0.26 | 0.26 | 0.26 | 75 | 1014.0 |
| 20260831221527 | 87 | 117 | 5.0 | 8.0 | 0.16 | 0.16 | 0.17 | 68 | 1014.0 |
| 20260831220053 | 92 | 157 | 1.0 | 5.0 | 0.05 | 0.05 | 0.05 | 62 | 1013.8 |
| 20260831214513 | 96 | 179 | 0.0 | 3.0 | 0.05 | 0.05 | 0.05 | 57 | 1013.7 |
| 20260831213047 | 98 | 178 | 1.0 | 3.0 | 0.00 | 0.00 | 0.00 | 44 | 1013.7 |
| 20260831211508 | 99 | 192 | 2.0 | 5.0 | 0.00 | 0.00 | 0.00 | 42 | 1013.7 |
| 20260831210042 | 99 | 225 | 0.0 | 3.0 | 0.00 | 0.00 | 0.00 | 41 | 1013.6 |
| 20260831204517 | 98 | 326 | 3.0 | 8.0 | 0.00 | 0.00 | 0.00 | 42 | 1014.0 |
| 20260831203045 | 98 | 234 | 3.0 | 5.0 | 0.00 | 0.00 | 0.00 | 41 | 1014.1 |
| 20260831201512 | 100 | 10 | 1.0 | 4.0 | 0.00 | 0.00 | 0.00 | 41 | 1014.4 |
| 20260831200037 | 100 | 124 | 2.0 | 4.0 | 0.00 | 0.00 | 0.00 | 40 | 1014.5 |
| 20260831194609 | 100 | 213 | 4.0 | 6.0 | 0.00 | 0.00 | 0.00 | 40 | 1014.7 |
| 20260831193020 | 99 | 171 | 3.0 | 7.0 | 0.00 | 0.00 | 0.00 | 41 | 1015.0 |
| 20260831191558 | 97 | 41 | 1.0 | 6.0 | 0.00 | 0.00 | 0.00 | 45 | 1015.3 |
| 20260831190008 | 96 | 18 | 1.0 | 5.0 | 0.00 | 0.00 | 0.00 | 46 | 1015.4 |
| 20260831184538 | 96 | 128 | 0.0 | 3.0 | 0.00 | 0.00 | 0.00 | 46 | 1015.8 |
| 20260831183005 | 95 | 198 | 2.0 | 5.0 | 0.00 | 0.00 | 0.00 | 49 | 1016.0 |
| 20260831181521 | 94 | 196 | 1.0 | 5.0 | 0.00 | 0.00 | 0.00 | 50 | 1016.3 |
| 20260831180052 | 94 | 160 | 2.0 | 6.0 | 0.00 | 0.00 | 0.00 | 51 | 1016.3 |
| 20260831174520 | 94 | 205 | 4.0 | 8.0 | 0.00 | 0.00 | 0.00 | 50 | 1016.4 |
| 20260831173126 | 95 | 165 | 1.0 | 4.0 | 0.00 | 0.00 | 0.00 | 49 | 1016.8 |
| 20260831171527 | 95 | 153 | 1.0 | 4.0 | 0.00 | 0.00 | 0.00 | 50 | 1016.8 |
| 20260831170056 | 94 | 38 | 0.0 | 4.0 | 0.00 | 0.00 | 0.00 | 50 | 1016.9 |
| 20260831164521 | 95 | 41 | 0.0 | 5.0 | 0.00 | 0.00 | 0.00 | 49 | 1017.0 |
| 20260831163048 | 94 | 48 | 0.0 | 3.0 | 0.00 | 0.00 | 0.00 | 53 | 1017.0 |
| 20260831161514 | 92 | 49 | 1.0 | 3.0 | 0.00 | 0.00 | 0.00 | 57 | 1017.1 |
| 20260831160036 | 89 | 49 | 0.0 | 5.0 | 0.00 | 0.00 | 0.00 | 62 | 1017.3 |
| 20260831154555 | 86 | 157 | 0.0 | 3.0 | 0.00 | 0.00 | 0.00 | 70 | 1017.4 |
| 20260831153014 | 83 | 165 | 1.0 | 3.0 | 0.00 | 0.00 | 0.00 | 74 | 1017.2 |
| 20260831151544 | 82 | 164 | 0.0 | 3.0 | 0.00 | 0.00 | 0.00 | 77 | 1017.2 |
| 20260831150020 | 81 | 176 | 0.0 | 3.0 | 0.00 | 0.00 | 0.00 | 82 | 1017.2 |
| 20260831144551 | 81 | 176 | 0.0 | 3.0 | 0.00 | 0.00 | 0.00 | 85 | 1017.2 |
| 20260831143013 | 80 | 176 | 1.0 | 2.0 | 0.00 | 0.00 | 0.00 | 86 | 1017.1 |
| 20260831141539 | 80 | 176 | 1.0 | 3.0 | 0.00 | 0.00 | 0.00 | 87 | 1017.0 |
| 20260831140009 | 79 | 176 | 2.0 | 5.0 | 0.00 | 0.00 | 0.00 | 87 | 1017.0 |
| 20260831134531 | 79 | 176 | 0.0 | 1.0 | 0.00 | 0.00 | 0.00 | 87 | 1016.8 |
| 20260831133051 | 78 | 176 | 0.0 | 2.0 | 0.00 | 0.00 | 0.00 | 87 | 1016.7 |
| 20260831131517 | 77 | 176 | 0.0 | 0.0 | 0.00 | 0.00 | 0.00 | 86 | 1016.7 |
| 20260831130043 | 77 | 176 | 0.0 | 0.0 | 0.00 | 0.00 | 0.00 | 86 | 1016.6 |
| 20260831124525 | 77 | 176 | 0.0 | 0.0 | 0.00 | 0.00 | 0.00 | 85 | 1016.5 |
| 20260831123027 | 77 | 176 | 0.0 | 0.0 | 0.00 | 0.00 | 0.00 | 84 | 1016.3 |
| 20260831121555 | 77 | 176 | 0.0 | 0.0 | 0.00 | 0.00 | 0.00 | 84 | 1015.9 |
| 20260831120024 | 77 | 176 | 0.0 | 0.0 | 0.00 | 0.00 | 0.00 | 84 | 1015.7 |
| 20260831114552 | 77 | 176 | 0.0 | 0.0 | 0.00 | 0.00 | 0.00 | 83 | 1015.6 |
| 20260831113019 | 77 | 176 | 0.0 | 0.0 | 0.00 | 0.00 | 0.00 | 83 | 1015.5 |
| 20260831111550 | 77 | 176 | 0.0 | 0.0 | 0.00 | 0.00 | 0.00 | 83 | 1015.5 |
| 20260831110018 | 77 | 176 | 0.0 | 0.0 | 0.00 | 0.00 | 0.00 | 83 | 1015.4 |
| 20260831104549 | 77 | 176 | 0.0 | 0.0 | 0.00 | 0.00 | 0.00 | 82 | 1015.3 |
| 20260831103008 | 78 | 176 | 0.0 | 0.0 | 0.00 | 0.00 | 0.00 | 82 | 1015.3 |
| 20260831101530 | 78 | 176 | 0.0 | 0.0 | 0.00 | 0.00 | 0.00 | 82 | 1015.4 |
| 20260831100005 | 78 | 176 | 0.0 | 1.0 | 0.00 | 0.00 | 0.00 | 81 | 1015.5 |
| 20260831094529 | 78 | 176 | 0.0 | 0.0 | 0.00 | 0.00 | 0.00 | 80 | 1015.5 |
| 20260831093056 | 79 | 176 | 0.0 | 0.0 | 0.00 | 0.00 | 0.00 | 80 | 1015.3 |
| 20260831091522 | 79 | 176 | 0.0 | 0.0 | 0.00 | 0.00 | 0.00 | 80 | 1015.4 |
| 20260831090046 | 79 | 176 | 0.0 | 0.0 | 0.00 | 0.00 | 0.00 | 80 | 1015.3 |
| 20260831084518 | 79 | 176 | 0.0 | 0.0 | 0.00 | 0.00 | 0.00 | 79 | 1015.2 |
| 20260831083047 | 80 | 176 | 0.0 | 1.0 | 0.00 | 0.00 | 0.00 | 78 | 1015.4 |
| 20260831081514 | 80 | 176 | 0.0 | 0.0 | 0.00 | 0.00 | 0.00 | 78 | 1015.4 |
| 20260831080040 | 80 | 176 | 0.0 | 1.0 | 0.00 | 0.00 | 0.00 | 77 | 1015.3 |
| 20260831074506 | 81 | 176 | 0.0 | 0.0 | 0.00 | 0.00 | 0.00 | 77 | 1015.4 |
| 20260831073030 | 81 | 176 | 0.0 | 0.0 | 0.00 | 0.00 | 0.00 | 76 | 1015.4 |
| 20260831071552 | 81 | 176 | 0.0 | 0.0 | 0.00 | 0.00 | 0.00 | 75 | 1015.5 |